Showing default

HEAD-1, 43011

Orbit data source: Space-Track

HEAD-1, 43011 is a payload satellite owned by HEAD (CN) in SSO that was launched on Tue, 14 Nov 2017 UTC via a CHANG ZHENG 4C launch vehicle from the Taiyaun Space Center, China (TSC). Payload-class satellites include a variety of spacecraft equipped with specific instruments for various scientific and technological missions. These include communications satellites like Starlink; space stations such as the ISS; scientific satellites like the Hubble; Earth observation satellites from companies like Planet Labs, Umbra, and HawkEye 360; GPS; miniature CubeSats for education and research; and military/defense satellites.

Loading next visibility...
Identifier
43011, 2017-072B
Orbit
SSO
Country
Flag of CNCN / PRC
Related business
Manufacturer
LIZH/SAST
Mission
Operational Commercial Communications
Bus & Motor
HEAD-1, Unknown motor
Mass
45 kg wet, 45 kg dry
Launch date (UTC)
2017-11-14 (8 years ago)
Launch vehicle
CHANG ZHENG 4C
Launch site
Taiyaun Space Center, China (TSC)
Object type
Payload
Rocket body
Debris
Shape & HBR
Box + 2 Pan, 1.0 m
Radar Cross Section
0.223 m², Medium (>0.1 m² and < 1m²)

Expand to show TLE details & history
Last TLE update: 7 hours ago

TLE from 7 hours ago
0 HEAD-1
1 43011U 17072B   26036.16178007  .00000425  00000-0  18743-3 0  9990
2 43011  98.9629  51.0965 0010042 171.8016 188.3330 14.28707495428503
Epoch: 2026-02-05T03:52Z
TLE epoch observation values (Epoch: 2026-02-05T03:52:57.798Z)
Latitude
-0.00003°
Longitude
-142.46229°
Altitude
806.102 km
Speed
7.447 km/s
True Right ascension
03h 24m 23s
True Declination
0° 00' 00"
Sunlit
Object was in daylight at epoch
Visualization orbit readout
Latitude
Unknown
Longitude
Unknown
Altitude
Unknown
Speed
Unknown
Apparent Right ascension
Unknown
Apparent Declination
Unknown
Sunlit
N/A
Visualization observer readout
Local Sidereal Time
12:24:58
Azimuth
Unknown
Elevation
Unknown
Doppler factor
Unknown
Orbital elements
Apogee altitude
800.415 km
Perigee altitude
786.012 km
Semi-major axis
7,171.351 km
Eccentricity
0.001
Inclination
98.9629°
RAAN
51.0965°
Arg. of periapsis
171.8016°
True anomaly
188.31634°
Mean anomaly
188.333°
Eccentric anomaly
188.32467°
Mean motion
3.57389 °/min
Orbital period
100.73 mins
BSTAR
0.00018743
Loading maneuver chart data...
Computing Atmospheric mass density...
Loading historical data...
Loading historical data...
Loading historical data...
Loading historical data...
Loading historical data...
Loading historical data...
Loading historical data...
Other satellites on launch #72 in the year 2017 (2017-11-14 UTC)

Documentation

Showing up to 5 results
|